Time,TemperatureF,DewpointF,PressureIn,WindDirection,WindDirectionDegrees,WindSpeedMPH,WindSpeedGustMPH,Humidity,HourlyPrecipIn,Conditions,Clouds,dailyrainin,SoftwareType,DateUTC
2014-09-18 00:04:00,68.6,63.6,29.76,WNW,302,6.0,11.0,84,0.00,,,0.00,WeatherCatV1.24B11,2014-09-18 07:04:00,
2014-09-18 00:09:00,68.6,63.6,29.76,WSW,255,6.0,6.0,84,0.00,,,0.00,WeatherCatV1.24B11,2014-09-18 07:09:00,
2014-09-18 00:14:00,68.6,63.6,29.76,NE,37,2.0,8.0,84,0.00,,,0.00,WeatherCatV1.24B11,2014-09-18 07:14:00,
2014-09-18 00:19:00,68.5,63.5,29.76,WSW,238,6.0,9.0,84,0.00,,,0.00,WeatherCatV1.24B11,2014-09-18 07:19:00,
2014-09-18 00:24:00,68.5,63.8,29.76,SE,145,5.0,9.0,85,0.00,,,0.00,WeatherCatV1.24B11,2014-09-18 07:24:00,
2014-09-18 00:29:00,68.5,63.8,29.76,North,0,9.0,9.0,85,0.00,,,0.00,WeatherCatV1.24B11,2014-09-18 07:29:00,
2014-09-18 00:34:00,68.5,63.8,29.76,West,278,7.0,11.0,85,0.00,,,0.00,WeatherCatV1.24B11,2014-09-18 07:34:00,
2014-09-18 00:39:00,68.5,63.8,29.76,WSW,250,8.0,12.0,85,0.00,,,0.00,WeatherCatV1.24B11,2014-09-18 07:39:00,
2014-09-18 00:44:00,68.5,63.8,29.76,WSW,242,3.0,10.0,85,0.00,,,0.00,WeatherCatV1.24B11,2014-09-18 07:44:00,
2014-09-18 00:49:00,68.4,63.7,29.76,SSW,193,8.0,10.0,85,0.00,,,0.00,WeatherCatV1.24B11,2014-09-18 07:49:00,
2014-09-18 00:51:00,68.4,63.7,29.76,West,266,5.0,13.0,85,0.00,,,0.00,WeatherCatV1.24B11,2014-09-18 07:51:00,
2014-09-18 00:56:00,68.3,63.6,29.76,North,352,4.0,9.0,85,0.00,,,0.00,WeatherCatV1.24B11,2014-09-18 07:56:00,
2014-09-18 01:01:00,68.3,63.6,29.76,SW,219,10.0,10.0,85,0.00,,,0.00,WeatherCatV1.24B11,2014-09-18 08:01:00,
2014-09-18 01:06:00,68.3,63.6,29.76,SW,221,4.0,10.0,85,0.00,,,0.00,WeatherCatV1.24B11,2014-09-18 08:06:00,
2014-09-18 01:11:00,68.2,63.5,29.76,SW,226,4.0,11.0,85,0.00,,,0.00,WeatherCatV1.24B11,2014-09-18 08:11:00,
2014-09-18 01:16:00,68.2,63.5,29.76,West,264,5.0,11.0,85,0.00,,,0.00,WeatherCatV1.24B11,2014-09-18 08:16:00,
2014-09-18 01:21:00,68.1,63.8,29.76,SW,222,4.0,8.0,86,0.00,,,0.00,WeatherCatV1.24B11,2014-09-18 08:21:00,
2014-09-18 01:26:00,68.0,63.3,29.76,SE,135,3.0,9.0,85,0.00,,,0.00,WeatherCatV1.24B11,2014-09-18 08:26:00,
2014-09-18 01:31:00,67.9,63.5,29.76,SSW,210,2.0,8.0,86,0.00,,,0.00,WeatherCatV1.24B11,2014-09-18 08:31:00,
2014-09-18 01:36:00,67.9,63.5,29.76,SSE,153,2.0,6.0,86,0.00,,,0.00,WeatherCatV1.24B11,2014-09-18 08:36:00,
2014-09-18 01:41:00,67.9,63.5,29.76,NW,318,5.0,10.0,86,0.00,,,0.00,WeatherCatV1.24B11,2014-09-18 08:41:00,
2014-09-18 01:46:00,67.9,63.9,29.75,South,180,3.0,6.0,87,0.00,,,0.00,WeatherCatV1.24B11,2014-09-18 08:46:00,
2014-09-18 01:51:00,67.9,63.9,29.75,SW,229,5.0,5.0,87,0.00,,,0.00,WeatherCatV1.24B11,2014-09-18 08:51:00,
2014-09-18 01:56:00,68.0,64.3,29.75,SE,135,3.0,5.0,88,0.00,,,0.00,WeatherCatV1.24B11,2014-09-18 08:56:00,
2014-09-18 02:01:00,68.2,64.8,29.75,West,259,2.0,7.0,89,0.00,,,0.00,WeatherCatV1.24B11,2014-09-18 09:01:00,
2014-09-18 02:06:00,68.1,64.7,29.75,West,269,6.0,7.0,89,0.00,,,0.00,WeatherCatV1.24B11,2014-09-18 09:06:00,
2014-09-18 02:11:00,67.9,64.5,29.76,WSW,248,5.0,7.0,89,0.00,,,0.00,WeatherCatV1.24B11,2014-09-18 09:11:00,
2014-09-18 02:16:00,67.8,64.8,29.76,SSW,203,4.0,6.0,90,0.00,,,0.00,WeatherCatV1.24B11,2014-09-18 09:16:00,
2014-09-18 02:21:00,67.7,64.7,29.75,WNW,297,5.0,5.0,90,0.00,,,0.00,WeatherCatV1.24B11,2014-09-18 09:21:00,
2014-09-18 02:26:00,67.7,64.7,29.75,South,179,2.0,4.0,90,0.00,,,0.00,WeatherCatV1.24B11,2014-09-18 09:26:00,
2014-09-18 02:31:00,67.7,65.0,29.76,SSW,210,1.0,3.0,91,0.00,,,0.00,WeatherCatV1.24B11,2014-09-18 09:31:00,
2014-09-18 02:36:00,67.7,65.0,29.76,SSW,205,1.0,2.0,91,0.00,,,0.00,WeatherCatV1.24B11,2014-09-18 09:36:00,
2014-09-18 02:41:00,67.7,65.0,29.76,SW,231,0.0,1.0,91,0.00,,,0.00,WeatherCatV1.24B11,2014-09-18 09:41:00,
2014-09-18 02:46:00,67.6,64.9,29.76,SW,231,0.0,0.0,91,0.00,,,0.00,WeatherCatV1.24B11,2014-09-18 09:46:00,
2014-09-18 02:51:00,67.4,64.7,29.76,SW,231,0.0,0.0,91,0.00,,,0.00,WeatherCatV1.24B11,2014-09-18 09:51:00,
2014-09-18 02:56:00,67.3,64.6,29.76,NNE,18,2.0,3.0,91,0.00,,,0.00,WeatherCatV1.24B11,2014-09-18 09:56:00,
2014-09-18 03:01:00,67.3,64.6,29.76,East,88,2.0,4.0,91,0.00,,,0.00,WeatherCatV1.24B11,2014-09-18 10:01:00,
2014-09-18 03:06:00,66.9,64.2,29.76,SE,127,2.0,4.0,91,0.00,,,0.00,WeatherCatV1.24B11,2014-09-18 10:06:00,
2014-09-18 03:11:00,66.7,64.0,29.77,NE,44,2.0,6.0,91,0.00,,,0.00,WeatherCatV1.24B11,2014-09-18 10:11:00,
2014-09-18 03:16:00,66.5,63.5,29.77,NNE,30,3.0,6.0,90,0.00,,,0.00,WeatherCatV1.24B11,2014-09-18 10:16:00,
2014-09-18 03:21:00,66.4,63.4,29.77,ENE,64,2.0,6.0,90,0.00,,,0.00,WeatherCatV1.24B11,2014-09-18 10:21:00,
2014-09-18 03:26:00,66.4,63.4,29.77,NE,51,5.0,6.0,90,0.00,,,0.00,WeatherCatV1.24B11,2014-09-18 10:26:00,
2014-09-18 03:31:00,66.5,63.2,29.77,SE,131,2.0,6.0,89,0.00,,,0.00,WeatherCatV1.24B11,2014-09-18 10:31:00,
2014-09-18 03:36:00,66.5,63.2,29.77,East,91,2.0,2.0,89,0.00,,,0.00,WeatherCatV1.24B11,2014-09-18 10:36:00,
2014-09-18 03:41:00,66.5,63.2,29.77,ESE,111,0.0,1.0,89,0.00,,,0.00,WeatherCatV1.24B11,2014-09-18 10:41:00,
2014-09-18 03:46:00,66.4,62.7,29.77,ESE,111,0.0,1.0,88,0.00,,,0.00,WeatherCatV1.24B11,2014-09-18 10:46:00,
2014-09-18 03:51:00,66.3,62.6,29.77,ESE,111,0.0,2.0,88,0.00,,,0.00,WeatherCatV1.24B11,2014-09-18 10:51:00,
2014-09-18 03:55:00,66.4,62.7,29.77,ESE,107,1.0,4.0,88,0.00,,,0.00,WeatherCatV1.24B11,2014-09-18 10:55:00,
2014-09-18 04:00:00,66.3,62.6,29.78,ESE,107,0.0,1.0,88,0.00,,,0.00,WeatherCatV1.24B11,2014-09-18 11:00:00,
2014-09-18 04:05:00,66.1,62.4,29.78,NNE,25,1.0,3.0,88,0.00,,,0.00,WeatherCatV1.24B11,2014-09-18 11:05:00,
2014-09-18 04:10:00,66.2,62.5,29.77,NNE,25,0.0,1.0,88,0.00,,,0.00,WeatherCatV1.24B11,2014-09-18 11:10:00,
2014-09-18 04:15:00,66.1,62.4,29.77,NNE,29,1.0,2.0,88,0.00,,,0.00,WeatherCatV1.24B11,2014-09-18 11:15:00,
2014-09-18 04:20:00,66.2,62.9,29.77,NNE,32,2.0,4.0,89,0.00,,,0.00,WeatherCatV1.24B11,2014-09-18 11:20:00,
2014-09-18 04:25:00,66.8,63.5,29.78,NNE,27,1.0,3.0,89,0.00,,,0.00,WeatherCatV1.24B11,2014-09-18 11:25:00,
2014-09-18 04:30:00,66.9,63.5,29.78,NNE,16,0.0,3.0,89,0.00,,,0.00,WeatherCatV1.24B11,2014-09-18 11:30:00,
2014-09-18 04:35:00,66.9,63.2,29.78,NE,39,0.0,2.0,88,0.00,,,0.00,WeatherCatV1.24B11,2014-09-18 11:35:00,
2014-09-18 04:40:00,66.7,63.0,29.77,NE,39,0.0,0.0,88,0.00,,,0.00,WeatherCatV1.24B11,2014-09-18 11:40:00,
2014-09-18 04:45:00,66.5,62.8,29.78,NE,40,0.0,0.0,88,0.00,,,0.00,WeatherCatV1.24B11,2014-09-18 11:45:00,
2014-09-18 04:50:00,66.4,62.7,29.77,NE,40,0.0,1.0,88,0.00,,,0.00,WeatherCatV1.24B11,2014-09-18 11:50:00,
2014-09-18 04:55:00,66.6,63.2,29.78,NNW,338,2.0,2.0,89,0.00,,,0.00,WeatherCatV1.24B11,2014-09-18 11:55:00,
2014-09-18 05:00:00,67.0,63.6,29.78,NE,37,2.0,4.0,89,0.00,,,0.00,WeatherCatV1.24B11,2014-09-18 12:00:00,
2014-09-18 05:05:00,67.1,63.7,29.78,WSW,255,3.0,4.0,89,0.00,,,0.00,WeatherCatV1.24B11,2014-09-18 12:05:00,
2014-09-18 05:10:00,67.1,63.7,29.78,North,8,3.0,5.0,89,0.00,,,0.00,WeatherCatV1.24B11,2014-09-18 12:10:00,
2014-09-18 05:15:00,67.0,63.6,29.78,NW,326,3.0,5.0,89,0.00,,,0.00,WeatherCatV1.24B11,2014-09-18 12:15:00,
2014-09-18 05:20:00,67.1,63.7,29.78,NE,50,2.0,7.0,89,0.00,,,0.00,WeatherCatV1.24B11,2014-09-18 12:20:00,
2014-09-18 05:25:00,67.2,63.8,29.78,North,357,4.0,5.0,89,0.00,,,0.00,WeatherCatV1.24B11,2014-09-18 12:25:00,
2014-09-18 05:30:00,67.4,64.0,29.79,North,1,4.0,6.0,89,0.00,,,0.00,WeatherCatV1.24B11,2014-09-18 12:30:00,
2014-09-18 05:35:00,67.5,64.5,29.79,NNW,330,2.0,5.0,90,0.00,,,0.00,WeatherCatV1.24B11,2014-09-18 12:35:00,
2014-09-18 05:40:00,67.6,64.6,29.79,NW,316,3.0,7.0,90,0.00,,,0.00,WeatherCatV1.24B11,2014-09-18 12:40:00,
2014-09-18 05:45:00,67.4,64.4,29.79,West,274,4.0,6.0,90,0.00,,,0.00,WeatherCatV1.24B11,2014-09-18 12:45:00,
2014-09-18 05:50:00,67.1,64.1,29.79,NNW,347,6.0,6.0,90,0.00,,,0.00,WeatherCatV1.24B11,2014-09-18 12:50:00,
2014-09-18 05:55:00,66.9,63.9,29.79,NNW,331,3.0,6.0,90,0.00,,,0.00,WeatherCatV1.24B11,2014-09-18 12:55:00,
2014-09-18 06:00:00,66.7,63.7,29.80,NW,321,3.0,5.0,90,0.00,,,0.00,WeatherCatV1.24B11,2014-09-18 13:00:00,
2014-09-18 06:05:00,66.7,63.7,29.80,North,9,1.0,4.0,90,0.00,,,0.00,WeatherCatV1.24B11,2014-09-18 13:05:00,
2014-09-18 06:10:00,66.7,63.7,29.80,NNW,338,1.0,2.0,90,0.00,,,0.00,WeatherCatV1.24B11,2014-09-18 13:10:00,
2014-09-18 06:14:00,66.7,63.7,29.80,NNW,328,2.0,3.0,90,0.00,,,0.00,WeatherCatV1.24B11,2014-09-18 13:14:00,
2014-09-18 06:19:00,66.6,63.6,29.80,NE,46,0.0,1.0,90,0.00,,,0.00,WeatherCatV1.24B11,2014-09-18 13:19:00,
2014-09-18 06:24:00,66.7,64.0,29.80,NE,53,2.0,3.0,91,0.00,,,0.00,WeatherCatV1.24B11,2014-09-18 13:24:00,
2014-09-18 06:29:00,66.7,64.0,29.80,NNE,13,4.0,5.0,91,0.00,,,0.00,WeatherCatV1.24B11,2014-09-18 13:29:00,
2014-09-18 06:34:00,66.8,64.1,29.81,NW,316,6.0,6.0,91,0.00,,,0.00,WeatherCatV1.24B11,2014-09-18 13:34:00,
2014-09-18 06:39:00,67.0,64.3,29.81,NE,46,3.0,6.0,91,0.00,,,0.00,WeatherCatV1.24B11,2014-09-18 13:39:00,
2014-09-18 06:44:00,67.1,64.4,29.81,North,4,6.0,7.0,91,0.00,,,0.00,WeatherCatV1.24B11,2014-09-18 13:44:00,
2014-09-18 06:49:00,66.8,64.1,29.81,NNE,29,1.0,2.0,91,0.00,,,0.00,WeatherCatV1.24B11,2014-09-18 13:49:00,
2014-09-18 06:54:00,66.7,64.0,29.82,ENE,57,3.0,5.0,91,0.00,,,0.00,WeatherCatV1.24B11,2014-09-18 13:54:00,
2014-09-18 06:59:00,66.8,64.1,29.82,NNE,27,2.0,3.0,91,0.00,,,0.00,WeatherCatV1.24B11,2014-09-18 13:59:00,
2014-09-18 07:04:00,66.9,64.2,29.82,SE,130,2.0,6.0,91,0.00,,,0.00,WeatherCatV1.24B11,2014-09-18 14:04:00,
2014-09-18 07:09:00,67.1,64.4,29.83,NE,39,4.0,7.0,91,0.00,,,0.00,WeatherCatV1.24B11,2014-09-18 14:09:00,
2014-09-18 07:14:00,67.2,64.2,29.83,NNW,327,6.0,11.0,90,0.00,,,0.00,WeatherCatV1.24B11,2014-09-18 14:14:00,
2014-09-18 07:19:00,67.1,64.4,29.83,North,1,8.0,10.0,91,0.00,,,0.00,WeatherCatV1.24B11,2014-09-18 14:19:00,
2014-09-18 07:24:00,66.9,63.9,29.84,North,349,11.0,11.0,90,0.00,,,0.00,WeatherCatV1.24B11,2014-09-18 14:24:00,
2014-09-18 07:29:00,66.8,63.8,29.84,NNW,338,6.0,11.0,90,0.00,,,0.00,WeatherCatV1.24B11,2014-09-18 14:29:00,
2014-09-18 07:34:00,67.0,64.3,29.84,NNW,335,6.0,10.0,91,0.00,,,0.00,WeatherCatV1.24B11,2014-09-18 14:34:00,
2014-09-18 07:39:00,67.0,64.3,29.84,NNW,333,5.0,10.0,91,0.00,,,0.00,WeatherCatV1.24B11,2014-09-18 14:39:00,
2014-09-18 07:44:00,67.0,64.3,29.84,NNW,338,6.0,11.0,91,0.00,,,0.00,WeatherCatV1.24B11,2014-09-18 14:44:00,
2014-09-18 07:49:00,67.0,64.3,29.84,NNE,28,6.0,10.0,91,0.00,,,0.00,WeatherCatV1.24B11,2014-09-18 14:49:00,
2014-09-18 07:54:00,67.0,64.3,29.84,NNE,26,9.0,11.0,91,0.00,,,0.00,WeatherCatV1.24B11,2014-09-18 14:54:00,
2014-09-18 07:59:00,67.1,64.4,29.85,NNE,20,7.0,13.0,91,0.00,,,0.00,WeatherCatV1.24B11,2014-09-18 14:59:00,
2014-09-18 08:04:00,67.1,64.4,29.85,NW,312,4.0,13.0,91,0.00,,,0.00,WeatherCatV1.24B11,2014-09-18 15:04:00,
2014-09-18 08:09:00,67.1,64.4,29.85,North,11,6.0,11.0,91,0.00,,,0.00,WeatherCatV1.24B11,2014-09-18 15:09:00,
2014-09-18 08:14:00,67.3,64.6,29.85,NNW,343,9.0,11.0,91,0.00,,,0.00,WeatherCatV1.24B11,2014-09-18 15:14:00,
2014-09-18 08:19:00,67.4,65.0,29.85,ENE,78,5.0,10.0,92,0.00,,,0.00,WeatherCatV1.24B11,2014-09-18 15:19:00,
2014-09-18 08:24:00,67.5,64.8,29.86,NE,44,6.0,13.0,91,0.00,,,0.00,WeatherCatV1.24B11,2014-09-18 15:24:00,
2014-09-18 08:29:00,67.5,64.8,29.86,West,266,8.0,10.0,91,0.00,,,0.00,WeatherCatV1.24B11,2014-09-18 15:29:00,
2014-09-18 08:34:00,67.6,64.9,29.86,North,4,4.0,12.0,91,0.00,,,0.00,WeatherCatV1.24B11,2014-09-18 15:34:00,
2014-09-18 08:39:00,67.5,64.5,29.86,North,351,6.0,13.0,90,0.00,,,0.00,WeatherCatV1.24B11,2014-09-18 15:39:00,
2014-09-18 08:44:00,67.6,64.6,29.86,North,1,9.0,13.0,90,0.00,,,0.00,WeatherCatV1.24B11,2014-09-18 15:44:00,
2014-09-18 08:48:00,67.7,65.0,29.86,NNW,340,8.0,11.0,91,0.00,,,0.00,WeatherCatV1.24B11,2014-09-18 15:48:00,
2014-09-18 08:53:00,67.8,64.8,29.86,North,4,14.0,14.0,90,0.00,,,0.00,WeatherCatV1.24B11,2014-09-18 15:53:00,
2014-09-18 08:58:00,67.9,64.8,29.87,NW,317,10.0,14.0,90,0.00,,,0.00,WeatherCatV1.24B11,2014-09-18 15:58:00,
2014-09-18 09:03:00,68.1,65.1,29.87,NNW,330,8.0,13.0,90,0.00,,,0.00,WeatherCatV1.24B11,2014-09-18 16:03:00,
2014-09-18 09:08:00,68.4,65.3,29.87,NNE,15,9.0,10.0,90,0.00,,,0.00,WeatherCatV1.24B11,2014-09-18 16:08:00,
2014-09-18 09:13:00,68.5,65.1,29.87,NNE,23,12.0,12.0,89,0.00,,,0.00,WeatherCatV1.24B11,2014-09-18 16:13:00,
2014-09-18 09:18:00,68.7,65.6,29.87,NNW,348,7.0,10.0,90,0.00,,,0.00,WeatherCatV1.24B11,2014-09-18 16:18:00,
2014-09-18 09:23:00,68.8,65.4,29.87,NW,323,10.0,12.0,89,0.00,,,0.00,WeatherCatV1.24B11,2014-09-18 16:23:00,
2014-09-18 09:28:00,68.9,65.5,29.87,NNE,13,10.0,11.0,89,0.00,,,0.00,WeatherCatV1.24B11,2014-09-18 16:28:00,
2014-09-18 09:33:00,68.8,64.8,29.87,North,9,7.0,11.0,87,0.00,,,0.00,WeatherCatV1.24B11,2014-09-18 16:33:00,
2014-09-18 09:38:00,69.0,64.6,29.87,West,274,4.0,15.0,86,0.00,,,0.00,WeatherCatV1.24B11,2014-09-18 16:38:00,
2014-09-18 09:43:00,69.6,64.9,29.87,East,99,11.0,13.0,85,0.00,,,0.00,WeatherCatV1.24B11,2014-09-18 16:43:00,
2014-09-18 09:48:00,70.1,65.4,29.87,West,264,9.0,10.0,85,0.00,,,0.00,WeatherCatV1.24B11,2014-09-18 16:48:00,
2014-09-18 09:53:00,70.4,65.3,29.87,North,353,13.0,13.0,84,0.00,,,0.00,WeatherCatV1.24B11,2014-09-18 16:53:00,
2014-09-18 09:58:00,70.5,65.4,29.88,West,261,11.0,15.0,84,0.00,,,0.00,WeatherCatV1.24B11,2014-09-18 16:58:00,
2014-09-18 10:03:00,70.7,65.6,29.88,NNW,345,10.0,14.0,84,0.00,,,0.00,WeatherCatV1.24B11,2014-09-18 17:03:00,
2014-09-18 10:08:00,70.7,65.6,29.88,NE,40,13.0,17.0,84,0.00,,,0.00,WeatherCatV1.24B11,2014-09-18 17:08:00,
2014-09-18 10:13:00,70.5,65.4,29.88,West,271,10.0,15.0,84,0.00,,,0.00,WeatherCatV1.24B11,2014-09-18 17:13:00,
2014-09-18 10:18:00,70.7,66.0,29.88,North,6,13.0,16.0,85,0.00,,,0.00,WeatherCatV1.24B11,2014-09-18 17:18:00,
2014-09-18 10:23:00,70.6,65.9,29.88,East,86,11.0,16.0,85,0.00,,,0.00,WeatherCatV1.24B11,2014-09-18 17:23:00,
2014-09-18 10:28:00,70.6,65.9,29.88,West,270,10.0,21.0,85,0.00,,,0.00,WeatherCatV1.24B11,2014-09-18 17:28:00,
2014-09-18 10:33:00,70.8,66.4,29.88,SSW,208,13.0,18.0,86,0.00,,,0.00,WeatherCatV1.24B11,2014-09-18 17:33:00,
2014-09-18 10:38:00,71.0,66.6,29.88,ENE,74,15.0,15.0,86,0.00,,,0.00,WeatherCatV1.24B11,2014-09-18 17:38:00,
2014-09-18 10:40:00,71.1,66.7,29.88,NE,42,12.0,14.0,86,0.00,,,0.00,WeatherCatV1.24B11,2014-09-18 17:40:00,
2014-09-18 10:45:00,71.1,66.7,29.88,WNW,301,15.0,17.0,86,0.00,,,0.00,WeatherCatV1.24B11,2014-09-18 17:45:00,
2014-09-18 10:50:00,70.9,66.2,29.88,WNW,291,7.0,15.0,85,0.00,,,0.00,WeatherCatV1.24B11,2014-09-18 17:50:00,
2014-09-18 10:55:00,70.9,66.2,29.89,WSW,238,4.0,11.0,85,0.00,,,0.00,WeatherCatV1.24B11,2014-09-18 17:55:00,
2014-09-18 11:00:00,71.0,66.6,29.88,NE,40,9.0,10.0,86,0.00,,,0.00,WeatherCatV1.24B11,2014-09-18 18:00:00,
2014-09-18 11:05:00,71.0,66.2,29.88,NNW,346,8.0,10.0,85,0.00,,,0.00,WeatherCatV1.24B11,2014-09-18 18:05:00,
2014-09-18 11:10:00,71.2,66.8,29.88,NNE,15,7.0,9.0,86,0.00,,,0.00,WeatherCatV1.24B11,2014-09-18 18:10:00,
2014-09-18 11:15:00,71.6,67.2,29.88,NW,307,6.0,8.0,86,0.00,,,0.00,WeatherCatV1.24B11,2014-09-18 18:15:00,
2014-09-18 11:20:00,72.2,67.4,29.88,NNW,330,6.0,9.0,85,0.00,,,0.00,WeatherCatV1.24B11,2014-09-18 18:20:00,
2014-09-18 11:25:00,72.6,67.8,29.88,NNE,12,8.0,8.0,85,0.00,,,0.00,WeatherCatV1.24B11,2014-09-18 18:25:00,
2014-09-18 11:27:00,72.7,67.6,29.88,NNE,26,5.0,8.0,84,0.00,,,0.00,WeatherCatV1.24B11,2014-09-18 18:27:00,
2014-09-18 11:32:00,73.2,67.7,29.88,ENE,57,5.0,8.0,83,0.00,,,0.00,WeatherCatV1.24B11,2014-09-18 18:32:00,
2014-09-18 11:37:00,73.3,67.8,29.88,NE,49,5.0,6.0,83,0.00,,,0.00,WeatherCatV1.24B11,2014-09-18 18:37:00,
2014-09-18 11:42:00,73.5,67.7,29.88,North,356,6.0,8.0,82,0.00,,,0.00,WeatherCatV1.24B11,2014-09-18 18:42:00,
2014-09-18 11:47:00,73.7,67.8,29.88,NNW,333,3.0,7.0,82,0.00,,,0.00,WeatherCatV1.24B11,2014-09-18 18:47:00,
2014-09-18 11:52:00,73.7,67.8,29.87,NW,325,5.0,6.0,82,0.00,,,0.00,WeatherCatV1.24B11,2014-09-18 18:52:00,
2014-09-18 11:57:00,73.8,67.6,29.87,NNW,333,6.0,6.0,81,0.00,,,0.00,WeatherCatV1.24B11,2014-09-18 18:57:00,
2014-09-18 12:02:00,73.7,67.5,29.87,NNW,328,5.0,6.0,81,0.00,,,0.00,WeatherCatV1.24B11,2014-09-18 19:02:00,
2014-09-18 12:07:00,73.8,67.6,29.87,NNW,334,5.0,6.0,81,0.00,,,0.00,WeatherCatV1.24B11,2014-09-18 19:07:00,
2014-09-18 12:12:00,74.1,67.5,29.87,North,8,4.0,5.0,80,0.00,,,0.00,WeatherCatV1.24B11,2014-09-18 19:12:00,
2014-09-18 12:17:00,74.2,67.6,29.86,NE,46,5.0,5.0,80,0.00,,,0.00,WeatherCatV1.24B11,2014-09-18 19:17:00,
2014-09-18 12:22:00,74.8,68.6,29.86,NW,317,3.0,5.0,81,0.00,,,0.00,WeatherCatV1.24B11,2014-09-18 19:22:00,
2014-09-18 12:27:00,74.9,68.3,29.86,SE,139,0.0,5.0,80,0.00,,,0.00,WeatherCatV1.24B11,2014-09-18 19:27:00,
2014-09-18 12:32:00,75.0,68.0,29.86,North,355,4.0,5.0,79,0.00,,,0.00,WeatherCatV1.24B11,2014-09-18 19:32:00,
2014-09-18 12:37:00,74.9,67.9,29.86,NNW,340,6.0,6.0,79,0.00,,,0.00,WeatherCatV1.24B11,2014-09-18 19:37:00,
2014-09-18 12:42:00,74.7,68.1,29.86,NNW,343,4.0,6.0,80,0.00,,,0.00,WeatherCatV1.24B11,2014-09-18 19:42:00,
2014-09-18 12:47:00,74.7,68.1,29.86,NW,318,5.0,7.0,80,0.00,,,0.00,WeatherCatV1.24B11,2014-09-18 19:47:00,
2014-09-18 12:52:00,75.0,68.0,29.86,SSE,147,3.0,7.0,79,0.00,,,0.00,WeatherCatV1.24B11,2014-09-18 19:52:00,
2014-09-18 12:57:00,75.0,68.0,29.86,NE,43,2.0,6.0,79,0.00,,,0.00,WeatherCatV1.24B11,2014-09-18 19:57:00,
2014-09-18 13:02:00,75.3,68.3,29.86,NE,34,3.0,5.0,79,0.00,,,0.00,WeatherCatV1.24B11,2014-09-18 20:02:00,
2014-09-18 13:07:00,75.5,68.1,29.86,NNE,18,1.0,6.0,78,0.00,,,0.00,WeatherCatV1.24B11,2014-09-18 20:07:00,
2014-09-18 13:12:00,76.0,68.6,29.86,NE,53,3.0,5.0,78,0.00,,,0.00,WeatherCatV1.24B11,2014-09-18 20:12:00,
2014-09-18 13:17:00,76.2,68.8,29.85,NNE,33,6.0,6.0,78,0.00,,,0.00,WeatherCatV1.24B11,2014-09-18 20:17:00,
2014-09-18 13:22:00,76.5,69.1,29.85,SSW,195,5.0,6.0,78,0.00,,,0.00,WeatherCatV1.24B11,2014-09-18 20:22:00,
2014-09-18 13:27:00,76.7,68.9,29.85,SSW,195,2.0,7.0,77,0.00,,,0.00,WeatherCatV1.24B11,2014-09-18 20:27:00,
2014-09-18 13:32:00,76.9,69.1,29.85,East,88,5.0,8.0,77,0.00,,,0.00,WeatherCatV1.24B11,2014-09-18 20:32:00,
2014-09-18 13:37:00,76.9,69.1,29.85,ESE,105,5.0,7.0,77,0.00,,,0.00,WeatherCatV1.24B11,2014-09-18 20:37:00,
2014-09-18 13:42:00,76.9,69.5,29.85,East,86,1.0,6.0,78,0.00,,,0.00,WeatherCatV1.24B11,2014-09-18 20:42:00,
2014-09-18 13:47:00,77.1,69.3,29.85,NE,41,3.0,6.0,77,0.00,,,0.00,WeatherCatV1.24B11,2014-09-18 20:47:00,
2014-09-18 13:52:00,77.2,69.0,29.84,SW,224,5.0,7.0,76,0.00,,,0.00,WeatherCatV1.24B11,2014-09-18 20:52:00,
2014-09-18 13:57:00,77.0,69.2,29.84,NNE,30,3.0,6.0,77,0.00,,,0.00,WeatherCatV1.24B11,2014-09-18 20:57:00,
2014-09-18 14:02:00,77.2,69.0,29.84,SE,133,1.0,5.0,76,0.00,,,0.00,WeatherCatV1.24B11,2014-09-18 21:02:00,
2014-09-18 14:07:00,77.4,69.2,29.84,NE,56,3.0,7.0,76,0.00,,,0.00,WeatherCatV1.24B11,2014-09-18 21:07:00,
2014-09-18 14:12:00,77.4,69.2,29.83,NE,49,4.0,4.0,76,0.00,,,0.00,WeatherCatV1.24B11,2014-09-18 21:12:00,
2014-09-18 14:17:00,77.5,69.3,29.83,SW,221,6.0,6.0,76,0.00,,,0.00,WeatherCatV1.24B11,2014-09-18 21:17:00,
2014-09-18 14:22:00,77.6,69.4,29.83,ENE,61,2.0,6.0,76,0.00,,,0.00,WeatherCatV1.24B11,2014-09-18 21:22:00,
2014-09-18 14:27:00,77.5,69.3,29.83,NW,326,4.0,6.0,76,0.00,,,0.00,WeatherCatV1.24B11,2014-09-18 21:27:00,
2014-09-18 14:32:00,77.4,69.2,29.83,WNW,287,7.0,9.0,76,0.00,,,0.00,WeatherCatV1.24B11,2014-09-18 21:32:00,
2014-09-18 14:37:00,77.2,69.0,29.83,ENE,63,5.0,8.0,76,0.00,,,0.00,WeatherCatV1.24B11,2014-09-18 21:37:00,
2014-09-18 14:42:00,77.2,69.4,29.83,North,351,7.0,7.0,77,0.00,,,0.00,WeatherCatV1.24B11,2014-09-18 21:42:00,
2014-09-18 14:47:00,77.0,69.2,29.82,ESE,107,4.0,7.0,77,0.00,,,0.00,WeatherCatV1.24B11,2014-09-18 21:47:00,
2014-09-18 14:52:00,77.0,69.2,29.82,ESE,108,4.0,6.0,77,0.00,,,0.00,WeatherCatV1.24B11,2014-09-18 21:52:00,
2014-09-18 14:57:00,77.1,69.3,29.82,NNE,12,3.0,10.0,77,0.00,,,0.00,WeatherCatV1.24B11,2014-09-18 21:57:00,
2014-09-18 15:02:00,77.1,69.3,29.82,NE,53,7.0,8.0,77,0.00,,,0.00,WeatherCatV1.24B11,2014-09-18 22:02:00,
2014-09-18 15:07:00,76.7,69.3,29.82,West,269,8.0,10.0,78,0.00,,,0.00,WeatherCatV1.24B11,2014-09-18 22:07:00,
2014-09-18 15:12:00,76.4,69.0,29.82,West,269,5.0,9.0,78,0.00,,,0.00,WeatherCatV1.24B11,2014-09-18 22:12:00,
2014-09-18 15:17:00,76.4,69.0,29.82,NNW,337,4.0,7.0,78,0.00,,,0.00,WeatherCatV1.24B11,2014-09-18 22:17:00,
2014-09-18 15:22:00,76.2,68.8,29.82,North,6,5.0,8.0,78,0.00,,,0.00,WeatherCatV1.24B11,2014-09-18 22:22:00,
2014-09-18 15:27:00,75.9,68.9,29.81,West,281,6.0,7.0,79,0.00,,,0.00,WeatherCatV1.24B11,2014-09-18 22:27:00,
2014-09-18 15:32:00,75.6,69.0,29.81,South,190,9.0,10.0,80,0.00,,,0.00,WeatherCatV1.24B11,2014-09-18 22:32:00,
2014-09-18 15:37:00,75.5,68.9,29.81,NW,323,6.0,12.0,80,0.00,,,0.00,WeatherCatV1.24B11,2014-09-18 22:37:00,
2014-09-18 15:42:00,75.2,68.9,29.81,WNW,291,9.0,12.0,81,0.00,,,0.00,WeatherCatV1.24B11,2014-09-18 22:42:00,
2014-09-18 15:46:00,75.1,68.9,29.81,NNW,339,11.0,15.0,81,0.00,,,0.00,WeatherCatV1.24B11,2014-09-18 22:46:00,
2014-09-18 15:51:00,75.1,69.2,29.81,WNW,290,10.0,11.0,82,0.00,,,0.00,WeatherCatV1.24B11,2014-09-18 22:51:00,
2014-09-18 15:56:00,74.8,68.9,29.81,NE,51,12.0,13.0,82,0.00,,,0.00,WeatherCatV1.24B11,2014-09-18 22:56:00,
2014-09-18 16:01:00,74.7,68.8,29.81,West,281,8.0,14.0,82,0.00,,,0.00,WeatherCatV1.24B11,2014-09-18 23:01:00,
2014-09-18 16:06:00,74.5,68.6,29.81,WNW,300,10.0,15.0,82,0.00,,,0.00,WeatherCatV1.24B11,2014-09-18 23:06:00,
2014-09-18 16:11:00,74.4,68.9,29.81,North,353,10.0,12.0,83,0.00,,,0.00,WeatherCatV1.24B11,2014-09-18 23:11:00,
2014-09-18 16:16:00,74.1,68.6,29.81,NNW,333,10.0,14.0,83,0.00,,,0.00,WeatherCatV1.24B11,2014-09-18 23:16:00,
2014-09-18 16:21:00,74.2,68.7,29.80,WNW,301,11.0,13.0,83,0.00,,,0.00,WeatherCatV1.24B11,2014-09-18 23:21:00,
2014-09-18 16:26:00,74.0,68.5,29.80,West,266,11.0,13.0,83,0.00,,,0.00,WeatherCatV1.24B11,2014-09-18 23:26:00,
2014-09-18 16:31:00,74.0,68.5,29.80,SW,225,12.0,13.0,83,0.00,,,0.00,WeatherCatV1.24B11,2014-09-18 23:31:00,
2014-09-18 16:36:00,73.8,68.7,29.81,NW,307,11.0,14.0,84,0.00,,,0.00,WeatherCatV1.24B11,2014-09-18 23:36:00,
2014-09-18 16:38:00,73.8,68.7,29.80,WNW,293,11.0,14.0,84,0.00,,,0.00,WeatherCatV1.24B11,2014-09-18 23:38:00,
2014-09-18 16:43:00,73.5,68.7,29.81,North,354,5.0,9.0,85,0.00,,,0.00,WeatherCatV1.24B11,2014-09-18 23:43:00,
2014-09-18 16:48:00,72.7,67.9,29.80,NNE,19,6.0,9.0,85,0.00,,,0.00,WeatherCatV1.24B11,2014-09-18 23:48:00,
2014-09-18 16:53:00,72.3,67.9,29.80,ESE,109,7.0,9.0,86,0.00,,,0.00,WeatherCatV1.24B11,2014-09-18 23:53:00,
2014-09-18 16:58:00,72.2,67.8,29.80,North,357,6.0,10.0,86,0.00,,,0.00,WeatherCatV1.24B11,2014-09-18 23:58:00,
2014-09-18 17:03:00,72.2,68.1,29.80,NNE,19,10.0,10.0,87,0.00,,,0.00,WeatherCatV1.24B11,2014-09-19 00:03:00,
2014-09-18 17:08:00,72.1,68.0,29.80,North,8,6.0,13.0,87,0.00,,,0.00,WeatherCatV1.24B11,2014-09-19 00:08:00,
2014-09-18 17:12:00,72.2,68.1,29.80,NNW,339,9.0,12.0,87,0.00,,,0.00,WeatherCatV1.24B11,2014-09-19 00:12:00,
2014-09-18 17:17:00,72.2,68.1,29.80,ESE,105,10.0,13.0,87,0.00,,,0.00,WeatherCatV1.24B11,2014-09-19 00:17:00,
2014-09-18 17:22:00,72.4,68.0,29.80,NNW,347,8.0,14.0,86,0.00,,,0.00,WeatherCatV1.24B11,2014-09-19 00:22:00,
2014-09-18 17:27:00,72.4,68.0,29.80,ENE,70,11.0,13.0,86,0.00,,,0.00,WeatherCatV1.24B11,2014-09-19 00:27:00,
2014-09-18 17:32:00,72.2,67.8,29.80,NE,49,10.0,13.0,86,0.00,,,0.00,WeatherCatV1.24B11,2014-09-19 00:32:00,
2014-09-18 17:37:00,72.1,68.0,29.80,ENE,57,11.0,11.0,87,0.00,,,0.00,WeatherCatV1.24B11,2014-09-19 00:37:00,
2014-09-18 17:42:00,72.2,67.8,29.80,NNE,27,10.0,11.0,86,0.00,,,0.00,WeatherCatV1.24B11,2014-09-19 00:42:00,
2014-09-18 17:47:00,72.1,68.0,29.80,North,1,11.0,12.0,87,0.00,,,0.00,WeatherCatV1.24B11,2014-09-19 00:47:00,
2014-09-18 17:52:00,72.2,68.1,29.80,ENE,68,6.0,12.0,87,0.00,,,0.00,WeatherCatV1.24B11,2014-09-19 00:52:00,
2014-09-18 17:57:00,72.0,67.6,29.80,NNW,342,5.0,11.0,86,0.00,,,0.00,WeatherCatV1.24B11,2014-09-19 00:57:00,
2014-09-18 18:02:00,71.9,67.5,29.80,ENE,58,7.0,12.0,86,0.00,,,0.00,WeatherCatV1.24B11,2014-09-19 01:02:00,
2014-09-18 18:07:00,71.9,67.5,29.80,NNW,328,10.0,12.0,86,0.00,,,0.00,WeatherCatV1.24B11,2014-09-19 01:07:00,
2014-09-18 18:12:00,71.6,67.5,29.80,North,1,6.0,12.0,87,0.00,,,0.00,WeatherCatV1.24B11,2014-09-19 01:12:00,
2014-09-18 18:17:00,71.6,67.5,29.80,East,91,5.0,10.0,87,0.00,,,0.00,WeatherCatV1.24B11,2014-09-19 01:17:00,
2014-09-18 18:22:00,71.5,67.4,29.81,NW,326,8.0,10.0,87,0.00,,,0.00,WeatherCatV1.24B11,2014-09-19 01:22:00,
2014-09-18 18:27:00,71.3,67.2,29.81,NNW,338,8.0,11.0,87,0.00,,,0.00,WeatherCatV1.24B11,2014-09-19 01:27:00,